Location: Newark
(55.7083°N, 13.1992°E)
Time: 06:17:11
(UTC+00:00)

N. Korean satellite - Pass Details

Date: 26 January 2020
Orbit: 456 x 505 km, 97.2° (Epoch: 20 February)

Event Time Altitude Azimuth Distance (km) Brightness Sun altitude
Rises 05:13:58 0° 14° (NNE) 2,533 10.3 -16.3°
Reaches altitude 10° 05:16:01 10° 14° (NNE) 1,658 9.3 -16.0°
Maximum altitude 05:19:35 89° 277° (W) 490 6.5 -15.5°
Drops below altitude 10° 05:23:11 10° 196° (SSW) 1,673 9.2 -15.0°
Sets 05:25:16 0° 196° (SSW) 2,558 10.2 -14.7°
